START_TIME,STEP,MOV.,P11,t_acc.,P23,t_acc.,P27,t_acc.,A4,t_acc.
1979-03-03 00:00:12.580 ,3,0,7.,4.8,0.,4.8,0.,4.8,0.,4.8
1979-03-03 00:00:17.380 ,3,0,13.,4.8,0.,4.8,0.,4.8,2.,4.8
1979-03-03 00:00:22.180 ,3,0,13.,4.8,0.,4.8,0.,4.8,1.,4.8
1979-03-03 00:00:26.980 ,3,0,22.,4.8,0.,4.8,0.,4.8,0.,4.8
1979-03-03 00:00:31.780 ,3,0,21.,4.8,0.,4.8,0.,4.8,3.,4.8
1979-03-03 00:00:36.580 ,4,0,22.,4.8,0.,4.8,0.,4.8,1.,4.8
1979-03-03 00:00:41.380 ,4,0,18.,4.8,0.,4.8,0.,4.8,1.,4.8
1979-03-03 00:00:46.180 ,4,0,17.,4.8,0.,4.8,0.,4.8,2.,4.8
1979-03-03 00:00:50.980 ,4,0,27.,4.8,0.,4.8,0.,4.8,3.,4.8
1979-03-03 00:00:55.780 ,4,0,21.,4.8,0.,4.8,0.,4.8,0.,4.8
1979-03-03 00:01:00.580 ,5,0,15.,4.8,0.,4.8,0.,4.8,4.,4.8
1979-03-03 00:01:05.380 ,5,0,20.,4.8,0.,4.8,0.,4.8,3.,4.8
1979-03-03 00:01:10.180 ,5,0,19.,4.8,0.,4.8,0.,4.8,1.,4.8
1979-03-03 00:01:14.980 ,5,0,24.,4.8,0.,4.8,0.,4.8,2.,4.8
1979-03-03 00:01:19.780 ,5,0,19.,4.8,0.,4.8,0.,4.8,6.,4.8
1979-03-03 00:01:24.580 ,6,0,17.,4.8,0.,4.8,0.,4.8,5.,4.8
1979-03-03 00:01:29.380 ,6,0,21.,4.8,0.,4.8,0.,4.8,2.,4.8
1979-03-03 00:01:34.180 ,6,0,14.,4.8,0.,4.8,0.,4.8,3.,4.8
1979-03-03 00:01:38.980 ,6,0,15.,4.8,0.,4.8,0.,4.8,4.,4.8
1979-03-03 00:01:43.780 ,6,0,17.,4.8,0.,4.8,0.,4.8,4.,4.8
1979-03-03 00:01:48.580 ,7,0,22.,4.8,0.,4.8,0.,4.8,3.,4.8
1979-03-03 00:01:53.380 ,7,0,20.,4.8,0.,4.8,0.,4.8,6.,4.8
1979-03-03 00:01:58.180 ,7,0,8.,4.8,0.,4.8,0.,4.8,0.,4.8
1979-03-03 00:02:02.980 ,7,0,3.,4.8,0.,4.8,0.,4.8,0.,4.8
1979-03-03 00:02:07.780 ,7,0,6.,4.8,0.,4.8,0.,4.8,0.,4.8
1979-03-03 00:02:12.580 ,7,0,1.,4.8,0.,4.8,0.,4.8,0.,4.8
1979-03-03 00:02:17.380 ,7,0,4.,4.8,0.,4.8,0.,4.8,0.,4.8
1979-03-03 00:02:22.180 ,7,0,7.,4.8,0.,4.8,0.,4.8,0.,4.8
1979-03-03 00:02:26.980 ,7,0,4.,4.8,0.,4.8,0.,4.8,0.,4.8
1979-03-03 00:02:31.780 ,7,0,7.,4.8,0.,4.8,0.,4.8,0.,4.8
1979-03-03 00:02:36.580 ,6,0,4.,4.8,0.,4.8,0.,4.8,0.,4.8
1979-03-03 00:02:41.380 ,6,0,,0,,0,,0,,0
1979-03-03 00:02:46.180 ,6,0,21.,4.8,0.,4.8,0.,4.8,5.,4.8
1979-03-03 00:02:50.980 ,6,0,33.,4.8,0.,4.8,0.,4.8,4.,4.8
1979-03-03 00:02:55.780 ,6,0,24.,4.8,0.,4.8,0.,4.8,2.,4.8
1979-03-03 00:03:00.580 ,5,0,24.,4.8,0.,4.8,0.,4.8,5.,4.8
1979-03-03 00:03:05.380 ,5,0,17.,4.8,0.,4.8,0.,4.8,5.,4.8
1979-03-03 00:03:10.180 ,5,0,24.,4.8,0.,4.8,0.,4.8,4.,4.8
1979-03-03 00:03:14.980 ,5,0,26.,4.8,0.,4.8,0.,4.8,5.,4.8
1979-03-03 00:03:19.780 ,5,0,17.,4.8,0.,4.8,0.,4.8,0.,4.8
1979-03-03 00:03:24.580 ,4,0,30.,4.8,0.,4.8,0.,4.8,4.,4.8
1979-03-03 00:03:29.380 ,4,0,28.,4.8,0.,4.8,0.,4.8,2.,4.8
1979-03-03 00:03:34.180 ,4,0,25.,4.8,0.,4.8,0.,4.8,2.,4.8
1979-03-03 00:03:38.980 ,4,0,19.,4.8,0.,4.8,0.,4.8,3.,4.8
1979-03-03 00:03:43.780 ,4,0,23.,4.8,0.,4.8,0.,4.8,1.,4.8
1979-03-03 00:03:48.580 ,3,0,19.,4.8,0.,4.8,0.,4.8,1.,4.8
1979-03-03 00:03:53.380 ,3,0,19.,4.8,0.,4.8,0.,4.8,2.,4.8
1979-03-03 00:03:58.180 ,3,0,26.,4.8,0.,4.8,0.,4.8,2.,4.8
1979-03-03 00:04:02.980 ,3,0,19.,4.8,0.,4.8,0.,4.8,1.,4.8
1979-03-03 00:04:07.780 ,3,0,17.,4.8,0.,4.8,0.,4.8,2.,4.8
1979-03-03 00:04:12.580 ,2,0,19.,4.8,0.,4.8,0.,4.8,1.,4.8
1979-03-03 00:04:17.380 ,2,0,25.,4.8,0.,4.8,0.,4.8,3.,4.8
1979-03-03 00:04:22.180 ,2,0,13.,4.8,0.,4.8,0.,4.8,1.,4.8
1979-03-03 00:04:26.980 ,2,0,21.,4.8,0.,4.8,0.,4.8,1.,4.8
1979-03-03 00:04:31.780 ,2,0,17.,4.8,0.,4.8,0.,4.8,2.,4.8
1979-03-03 00:04:36.580 ,1,0,17.,4.8,0.,4.8,0.,4.8,1.,4.8
1979-03-03 00:04:41.380 ,1,0,21.,4.8,0.,4.8,0.,4.8,0.,4.8
1979-03-03 00:04:46.180 ,1,0,14.,4.8,0.,4.8,0.,4.8,1.,4.8
1979-03-03 00:04:50.980 ,1,0,20.,4.8,0.,4.8,0.,4.8,0.,4.8
1979-03-03 00:04:55.780 ,1,0,19.,4.8,0.,4.8,0.,4.8,0.,4.8
1979-03-03 00:05:00.580 ,0,0,19.,4.8,0.,4.8,0.,4.8,1.,4.8
1979-03-03 00:05:05.380 ,0,0,18.,4.8,0.,4.8,0.,4.8,0.,4.8
1979-03-03 00:05:10.180 ,0,0,17.,4.8,0.,4.8,0.,4.8,1.,4.8
1979-03-03 00:05:14.980 ,0,0,21.,4.8,0.,4.8,0.,4.8,1.,4.8
1979-03-03 00:05:19.780 ,0,0,22.,4.8,0.,4.8,0.,4.8,1.,4.8
1979-03-03 00:05:24.580 ,0,0,16.,4.8,0.,4.8,0.,4.8,1.,4.8
1979-03-03 00:05:29.380 ,0,0,23.,4.8,0.,4.8,0.,4.8,2.,4.8
1979-03-03 00:05:34.180 ,0,0,16.,4.8,0.,4.8,0.,4.8,1.,4.8
1979-03-03 00:05:38.980 ,0,0,12.,4.8,0.,4.8,0.,4.8,2.,4.8
1979-03-03 00:05:43.780 ,0,0,17.,4.8,0.,4.8,0.,4.8,0.,4.8
1979-03-03 00:05:48.580 ,1,0,13.,4.8,0.,4.8,0.,4.8,2.,4.8
1979-03-03 00:05:53.380 ,1,0,18.,4.8,0.,4.8,0.,4.8,0.,4.8
1979-03-03 00:05:58.180 ,1,0,23.,4.8,0.,4.8,0.,4.8,1.,4.8
1979-03-03 00:06:02.980 ,1,0,15.,4.8,0.,4.8,0.,4.8,0.,4.8
1979-03-03 00:06:07.780 ,1,0,17.,4.8,0.,4.8,0.,4.8,0.,4.8
1979-03-03 00:06:12.580 ,2,0,16.,4.8,0.,4.8,0.,4.8,0.,4.8
1979-03-03 00:06:17.380 ,2,0,10.,4.8,0.,4.8,0.,4.8,0.,4.8
1979-03-03 00:06:22.180 ,2,0,20.,4.8,0.,4.8,0.,4.8,0.,4.8
1979-03-03 00:06:26.980 ,2,0,9.,4.8,0.,4.8,0.,4.8,2.,4.8
1979-03-03 00:06:31.780 ,2,0,10.,4.8,0.,4.8,0.,4.8,1.,4.8
1979-03-03 00:06:36.580 ,3,0,16.,4.8,0.,4.8,0.,4.8,0.,4.8
1979-03-03 00:06:41.380 ,3,0,16.,4.8,0.,4.8,0.,4.8,0.,4.8
1979-03-03 00:06:46.180 ,3,0,22.,4.8,0.,4.8,0.,4.8,0.,4.8
1979-03-03 00:06:50.980 ,3,0,15.,4.8,0.,4.8,0.,4.8,0.,4.8
1979-03-03 00:06:55.780 ,3,0,18.,4.8,0.,4.8,0.,4.8,2.,4.8
1979-03-03 00:07:00.580 ,4,0,17.,4.8,0.,4.8,0.,4.8,0.,4.8
1979-03-03 00:07:05.380 ,4,0,11.,4.8,0.,4.8,0.,4.8,2.,4.8
1979-03-03 00:07:10.180 ,4,0,13.,4.8,0.,4.8,0.,4.8,4.,4.8
1979-03-03 00:07:14.980 ,4,0,21.,4.8,0.,4.8,0.,4.8,4.,4.8
1979-03-03 00:07:19.780 ,4,0,13.,4.8,0.,4.8,0.,4.8,6.,4.8
1979-03-03 00:07:24.580 ,5,0,10.,4.8,0.,4.8,0.,4.8,1.,4.8
1979-03-03 00:07:29.380 ,5,0,21.,4.8,0.,4.8,0.,4.8,0.,4.8
1979-03-03 00:07:34.180 ,5,0,14.,4.8,0.,4.8,0.,4.8,5.,4.8
1979-03-03 00:07:38.980 ,5,0,17.,4.8,0.,4.8,0.,4.8,7.,4.8
1979-03-03 00:07:43.780 ,5,0,29.,4.8,0.,4.8,0.,4.8,7.,4.8
1979-03-03 00:07:48.580 ,6,0,27.,4.8,0.,4.8,0.,4.8,3.,4.8
1979-03-03 00:07:53.380 ,6,0,27.,4.8,0.,4.8,0.,4.8,4.,4.8
1979-03-03 00:07:58.180 ,6,0,20.,4.8,0.,4.8,0.,4.8,4.,4.8
1979-03-03 00:08:02.980 ,6,0,13.,4.8,0.,4.8,0.,4.8,4.,4.8
1979-03-03 00:08:07.780 ,6,0,22.,4.8,0.,4.8,0.,4.8,5.,4.8
1979-03-03 00:08:12.580 ,7,0,22.,4.8,0.,4.8,0.,4.8,3.,4.8
1979-03-03 00:08:17.380 ,7,0,21.,4.8,0.,4.8,0.,4.8,5.,4.8
1979-03-03 00:08:22.180 ,7,0,6.,4.8,0.,4.8,0.,4.8,1.,4.8
1979-03-03 00:08:26.980 ,7,0,3.,4.8,0.,4.8,0.,4.8,0.,4.8
1979-03-03 00:08:31.780 ,7,0,4.,4.8,0.,4.8,0.,4.8,0.,4.8
1979-03-03 00:08:36.580 ,7,0,3.,4.8,0.,4.8,0.,4.8,0.,4.8
1979-03-03 00:08:41.380 ,7,0,6.,4.8,0.,4.8,0.,4.8,0.,4.8
1979-03-03 00:08:46.180 ,7,0,2.,4.8,0.,4.8,0.,4.8,0.,4.8
1979-03-03 00:08:50.980 ,7,0,5.,4.8,0.,4.8,0.,4.8,0.,4.8
1979-03-03 00:08:55.780 ,7,0,3.,4.8,0.,4.8,0.,4.8,0.,4.8
1979-03-03 00:09:00.580 ,6,0,6.,4.8,0.,4.8,0.,4.8,0.,4.8
1979-03-03 00:09:05.380 ,6,0,3.,4.8,0.,4.8,0.,4.8,0.,4.8
1979-03-03 00:09:10.180 ,6,0,21.,4.8,0.,4.8,0.,4.8,4.,4.8
1979-03-03 00:09:14.980 ,6,0,20.,4.8,0.,4.8,0.,4.8,6.,4.8
1979-03-03 00:09:19.780 ,6,0,20.,4.8,0.,4.8,0.,4.8,3.,4.8
1979-03-03 00:09:24.580 ,5,0,33.,4.8,0.,4.8,0.,4.8,3.,4.8
1979-03-03 00:09:29.380 ,5,0,27.,4.8,0.,4.8,0.,4.8,3.,4.8
1979-03-03 00:09:34.180 ,5,0,29.,4.8,0.,4.8,0.,4.8,8.,4.8
1979-03-03 00:09:38.980 ,5,0,34.,4.8,0.,4.8,0.,4.8,4.,4.8
1979-03-03 00:09:43.780 ,5,0,27.,4.8,0.,4.8,0.,4.8,1.,4.8
1979-03-03 00:09:48.580 ,4,0,15.,4.8,0.,4.8,0.,4.8,2.,4.8
1979-03-03 00:09:53.380 ,4,0,24.,4.8,0.,4.8,0.,4.8,4.,4.8
1979-03-03 00:09:58.180 ,4,0,23.,4.8,0.,4.8,0.,4.8,2.,4.8
1979-03-03 00:10:02.980 ,4,0,19.,4.8,0.,4.8,0.,4.8,2.,4.8
1979-03-03 00:10:07.780 ,4,0,25.,4.8,0.,4.8,0.,4.8,6.,4.8
1979-03-03 00:10:12.580 ,3,0,17.,4.8,0.,4.8,0.,4.8,2.,4.8
1979-03-03 00:10:17.380 ,3,0,24.,4.8,0.,4.8,0.,4.8,3.,4.8
1979-03-03 00:10:22.180 ,3,0,6.,4.8,0.,4.8,0.,4.8,2.,4.8
1979-03-03 00:10:26.980 ,3,0,13.,4.8,0.,4.8,0.,4.8,0.,4.8
1979-03-03 00:10:31.780 ,3,0,19.,4.8,0.,4.8,0.,4.8,0.,4.8
1979-03-03 00:10:36.580 ,2,0,11.,4.8,0.,4.8,0.,4.8,0.,4.8
1979-03-03 00:10:41.380 ,2,0,14.,4.8,0.,4.8,0.,4.8,0.,4.8
1979-03-03 00:10:46.180 ,2,0,21.,4.8,0.,4.8,0.,4.8,0.,4.8
1979-03-03 00:10:50.980 ,2,0,10.,4.8,0.,4.8,0.,4.8,0.,4.8
1979-03-03 00:10:55.780 ,2,0,13.,4.8,0.,4.8,0.,4.8,0.,4.8
1979-03-03 00:11:00.580 ,1,0,7.,4.8,0.,4.8,0.,4.8,0.,4.8
1979-03-03 00:11:05.380 ,1,0,22.,4.8,0.,4.8,0.,4.8,0.,4.8
1979-03-03 00:11:10.180 ,1,0,9.,4.8,0.,4.8,0.,4.8,0.,4.8
1979-03-03 00:11:14.980 ,1,0,11.,4.8,0.,4.8,0.,4.8,0.,4.8
1979-03-03 00:11:19.780 ,1,0,10.,4.8,0.,4.8,0.,4.8,0.,4.8
1979-03-03 00:11:24.580 ,0,0,15.,4.8,0.,4.8,0.,4.8,0.,4.8
1979-03-03 00:11:29.380 ,0,0,6.,4.8,0.,4.8,0.,4.8,0.,4.8
1979-03-03 00:11:34.180 ,0,0,13.,4.8,0.,4.8,0.,4.8,1.,4.8
1979-03-03 00:11:38.980 ,0,0,12.,4.8,0.,4.8,0.,4.8,2.,4.8
1979-03-03 00:11:43.780 ,0,0,7.,4.8,0.,4.8,0.,4.8,2.,4.8
1979-03-03 00:11:48.580 ,0,0,8.,4.8,0.,4.8,0.,4.8,2.,4.8
1979-03-03 00:11:53.380 ,0,0,8.,4.8,0.,4.8,0.,4.8,0.,4.8
1979-03-03 00:11:58.180 ,0,0,5.,4.8,0.,4.8,0.,4.8,3.,4.8
1979-03-03 00:12:02.980 ,0,0,17.,4.8,0.,4.8,0.,4.8,1.,4.8
1979-03-03 00:12:07.780 ,0,0,18.,4.8,0.,4.8,0.,4.8,1.,4.8
1979-03-03 00:12:12.580 ,1,0,10.,4.8,0.,4.8,0.,4.8,1.,4.8
1979-03-03 00:12:17.380 ,1,0,8.,4.8,0.,4.8,0.,4.8,1.,4.8
1979-03-03 00:12:22.180 ,1,0,4.,4.8,0.,4.8,0.,4.8,0.,4.8
1979-03-03 00:12:26.980 ,1,0,4.,4.8,0.,4.8,0.,4.8,0.,4.8
1979-03-03 00:12:31.780 ,1,0,5.,4.8,0.,4.8,0.,4.8,0.,4.8
1979-03-03 00:12:36.580 ,2,0,8.,4.8,0.,4.8,0.,4.8,0.,4.8
1979-03-03 00:12:41.380 ,2,0,4.,4.8,0.,4.8,0.,4.8,0.,4.8
1979-03-03 00:12:46.180 ,2,0,4.,4.8,0.,4.8,0.,4.8,0.,4.8
1979-03-03 00:12:50.980 ,2,0,4.,4.8,0.,4.8,0.,4.8,0.,4.8
1979-03-03 00:12:55.780 ,2,0,7.,4.8,0.,4.8,0.,4.8,0.,4.8
1979-03-03 00:13:00.580 ,3,0,5.,4.8,0.,4.8,0.,4.8,0.,4.8
1979-03-03 00:13:05.380 ,3,0,7.,4.8,0.,4.8,0.,4.8,0.,4.8
1979-03-03 00:13:10.180 ,3,0,15.,4.8,0.,4.8,0.,4.8,3.,4.8
1979-03-03 00:13:14.980 ,3,0,14.,4.8,0.,4.8,0.,4.8,0.,4.8
1979-03-03 00:13:19.780 ,3,0,7.,4.8,0.,4.8,0.,4.8,1.,4.8
1979-03-03 00:13:24.580 ,4,0,8.,4.8,0.,4.8,0.,4.8,0.,4.8
1979-03-03 00:13:29.380 ,4,0,13.,4.8,0.,4.8,0.,4.8,0.,4.8
1979-03-03 00:13:34.180 ,4,0,22.,4.8,0.,4.8,0.,4.8,4.,4.8
1979-03-03 00:13:38.980 ,4,0,8.,4.8,0.,4.8,0.,4.8,1.,4.8
1979-03-03 00:13:43.780 ,4,0,14.,4.8,0.,4.8,0.,4.8,1.,4.8
1979-03-03 00:13:48.580 ,5,0,14.,4.8,0.,4.8,0.,4.8,1.,4.8
1979-03-03 00:13:53.380 ,5,0,10.,4.8,0.,4.8,0.,4.8,0.,4.8
1979-03-03 00:13:58.180 ,5,0,16.,4.8,0.,4.8,0.,4.8,5.,4.8
1979-03-03 00:14:02.980 ,5,0,16.,4.8,0.,4.8,0.,4.8,2.,4.8
1979-03-03 00:14:07.780 ,5,0,16.,4.8,0.,4.8,0.,4.8,2.,4.8
1979-03-03 00:14:12.580 ,6,0,14.,4.8,0.,4.8,0.,4.8,7.,4.8
1979-03-03 00:14:17.380 ,6,0,21.,4.8,0.,4.8,0.,4.8,3.,4.8
1979-03-03 00:14:22.180 ,6,0,22.,4.8,0.,4.8,0.,4.8,6.,4.8
1979-03-03 00:14:26.980 ,6,0,15.,4.8,0.,4.8,0.,4.8,1.,4.8
1979-03-03 00:14:31.780 ,6,0,22.,4.8,0.,4.8,0.,4.8,7.,4.8
1979-03-03 00:14:36.580 ,7,0,15.,4.8,0.,4.8,0.,4.8,2.,4.8
1979-03-03 00:14:41.380 ,7,0,13.,4.8,0.,4.8,0.,4.8,2.,4.8
1979-03-03 00:14:46.180 ,7,0,5.,4.8,0.,4.8,0.,4.8,0.,4.8
1979-03-03 00:14:50.980 ,7,0,2.,4.8,0.,4.8,0.,4.8,0.,4.8
1979-03-03 00:14:55.780 ,7,0,1.,4.8,0.,4.8,0.,4.8,0.,4.8
1979-03-03 00:15:00.580 ,7,0,3.,4.8,0.,4.8,0.,4.8,0.,4.8
1979-03-03 00:15:05.380 ,7,0,2.,4.8,0.,4.8,0.,4.8,0.,4.8
1979-03-03 00:15:10.180 ,7,0,4.,4.8,0.,4.8,0.,4.8,0.,4.8
1979-03-03 00:15:14.980 ,7,0,2.,4.8,0.,4.8,0.,4.8,0.,4.8
1979-03-03 00:15:19.780 ,7,0,2.,4.8,0.,4.8,0.,4.8,0.,4.8
1979-03-03 00:15:24.580 ,6,0,0.,4.8,0.,4.8,0.,4.8,0.,4.8
1979-03-03 00:15:29.380 ,6,0,0.,4.8,0.,4.8,0.,4.8,0.,4.8
1979-03-03 00:15:34.180 ,6,0,11.,4.8,0.,4.8,0.,4.8,4.,4.8
1979-03-03 00:15:38.980 ,6,0,16.,4.8,0.,4.8,0.,4.8,3.,4.8
1979-03-03 00:15:43.780 ,6,0,11.,4.8,0.,4.8,0.,4.8,3.,4.8
1979-03-03 00:15:48.580 ,5,0,9.,4.8,0.,4.8,0.,4.8,2.,4.8
1979-03-03 00:15:53.380 ,5,0,15.,4.8,0.,4.8,0.,4.8,0.,4.8
1979-03-03 00:15:58.180 ,5,0,17.,4.8,0.,4.8,0.,4.8,1.,4.8
1979-03-03 00:16:02.980 ,5,0,11.,4.8,0.,4.8,0.,4.8,1.,4.8
1979-03-03 00:16:07.780 ,5,0,13.,4.8,0.,4.8,0.,4.8,4.,4.8
1979-03-03 00:16:12.580 ,4,0,9.,4.8,0.,4.8,0.,4.8,0.,4.8
1979-03-03 00:16:17.380 ,4,0,15.,4.8,0.,4.8,0.,4.8,4.,4.8
1979-03-03 00:16:22.180 ,4,0,7.,4.8,0.,4.8,0.,4.8,1.,4.8
1979-03-03 00:16:26.980 ,4,0,13.,4.8,0.,4.8,0.,4.8,0.,4.8
1979-03-03 00:16:31.780 ,4,0,10.,4.8,0.,4.8,0.,4.8,0.,4.8
1979-03-03 00:16:36.580 ,3,0,9.,4.8,0.,4.8,0.,4.8,0.,4.8
1979-03-03 00:16:41.380 ,3,0,16.,4.8,0.,4.8,0.,4.8,0.,4.8
1979-03-03 00:16:46.180 ,3,0,6.,4.8,0.,4.8,0.,4.8,1.,4.8
1979-03-03 00:16:50.980 ,3,0,7.,4.8,0.,4.8,0.,4.8,1.,4.8
1979-03-03 00:16:55.780 ,3,0,7.,4.8,0.,4.8,0.,4.8,0.,4.8
1979-03-03 00:17:00.580 ,2,0,10.,4.8,0.,4.8,0.,4.8,0.,4.8
1979-03-03 00:17:05.380 ,2,0,13.,4.8,0.,4.8,0.,4.8,1.,4.8
1979-03-03 00:17:10.180 ,2,0,3.,4.8,0.,4.8,0.,4.8,0.,4.8
1979-03-03 00:17:14.980 ,2,0,1.,4.8,0.,4.8,0.,4.8,0.,4.8
1979-03-03 00:17:19.780 ,2,0,3.,4.8,0.,4.8,0.,4.8,0.,4.8
1979-03-03 00:17:24.580 ,1,0,7.,4.8,0.,4.8,0.,4.8,0.,4.8
1979-03-03 00:17:29.380 ,1,0,1.,4.8,0.,4.8,0.,4.8,0.,4.8
1979-03-03 00:17:34.180 ,1,0,6.,4.8,0.,4.8,0.,4.8,0.,4.8
1979-03-03 00:17:38.980 ,1,0,1.,4.8,0.,4.8,0.,4.8,0.,4.8
1979-03-03 00:17:43.780 ,1,0,3.,4.8,0.,4.8,0.,4.8,0.,4.8
1979-03-03 00:17:48.580 ,0,0,4.,4.8,0.,4.8,0.,4.8,0.,4.8
1979-03-03 00:17:53.380 ,0,0,4.,4.8,0.,4.8,0.,4.8,1.,4.8
1979-03-03 00:17:58.180 ,0,0,11.,4.8,0.,4.8,0.,4.8,0.,4.8
1979-03-03 00:18:02.980 ,0,0,12.,4.8,0.,4.8,0.,4.8,1.,4.8
1979-03-03 00:18:07.780 ,0,0,18.,4.8,0.,4.8,0.,4.8,1.,4.8
1979-03-03 00:18:12.580 ,0,0,15.,4.8,0.,4.8,0.,4.8,0.,4.8
1979-03-03 00:18:17.380 ,0,0,14.,4.8,0.,4.8,0.,4.8,1.,4.8
1979-03-03 00:18:22.180 ,0,0,13.,4.8,0.,4.8,0.,4.8,0.,4.8
1979-03-03 00:18:26.980 ,0,0,10.,4.8,0.,4.8,0.,4.8,1.,4.8
1979-03-03 00:18:31.780 ,0,0,8.,4.8,0.,4.8,0.,4.8,0.,4.8
1979-03-03 00:18:36.580 ,1,0,10.,4.8,0.,4.8,0.,4.8,3.,4.8
1979-03-03 00:18:41.380 ,1,0,5.,4.8,0.,4.8,0.,4.8,2.,4.8
1979-03-03 00:18:46.180 ,1,0,4.,4.8,0.,4.8,0.,4.8,0.,4.8
1979-03-03 00:18:50.980 ,1,0,6.,4.8,0.,4.8,0.,4.8,0.,4.8
1979-03-03 00:18:55.780 ,1,0,4.,4.8,0.,4.8,0.,4.8,0.,4.8
1979-03-03 00:19:00.580 ,2,0,3.,4.8,0.,4.8,0.,4.8,0.,4.8
1979-03-03 00:19:05.380 ,2,0,7.,4.8,0.,4.8,0.,4.8,1.,4.8
1979-03-03 00:19:10.180 ,2,0,2.,4.8,0.,4.8,0.,4.8,0.,4.8
1979-03-03 00:19:14.980 ,2,0,3.,4.8,0.,4.8,0.,4.8,0.,4.8
1979-03-03 00:19:19.780 ,2,0,7.,4.8,0.,4.8,0.,4.8,0.,4.8
1979-03-03 00:19:24.580 ,3,0,7.,4.8,0.,4.8,0.,4.8,0.,4.8
1979-03-03 00:19:29.380 ,3,0,4.,4.8,0.,4.8,0.,4.8,0.,4.8
1979-03-03 00:19:34.180 ,3,0,5.,4.8,0.,4.8,0.,4.8,0.,4.8
1979-03-03 00:19:38.980 ,3,0,10.,4.8,0.,4.8,0.,4.8,0.,4.8
1979-03-03 00:19:43.780 ,3,0,8.,4.8,0.,4.8,0.,4.8,1.,4.8
1979-03-03 00:19:48.580 ,4,0,11.,4.8,0.,4.8,0.,4.8,2.,4.8
1979-03-03 00:19:53.380 ,4,0,6.,4.8,0.,4.8,0.,4.8,2.,4.8
1979-03-03 00:19:58.180 ,4,0,4.,4.8,0.,4.8,0.,4.8,1.,4.8
1979-03-03 00:20:02.980 ,4,0,10.,4.8,0.,4.8,0.,4.8,1.,4.8
1979-03-03 00:20:07.780 ,4,0,13.,4.8,0.,4.8,0.,4.8,1.,4.8
1979-03-03 00:20:12.580 ,5,0,14.,4.8,0.,4.8,0.,4.8,0.,4.8
1979-03-03 00:20:17.380 ,5,0,6.,4.8,0.,4.8,0.,4.8,1.,4.8
1979-03-03 00:20:22.180 ,5,0,8.,4.8,0.,4.8,0.,4.8,1.,4.8
1979-03-03 00:20:26.980 ,5,0,14.,4.8,0.,4.8,0.,4.8,1.,4.8
1979-03-03 00:20:31.780 ,5,0,18.,4.8,0.,4.8,0.,4.8,2.,4.8
1979-03-03 00:20:36.580 ,6,0,7.,4.8,0.,4.8,0.,4.8,0.,4.8
1979-03-03 00:20:41.380 ,6,0,14.,4.8,0.,4.8,0.,4.8,1.,4.8
1979-03-03 00:20:46.180 ,6,0,13.,4.8,0.,4.8,0.,4.8,1.,4.8
1979-03-03 00:20:50.980 ,6,0,14.,4.8,0.,4.8,0.,4.8,0.,4.8
1979-03-03 00:20:55.780 ,6,0,10.,4.8,0.,4.8,0.,4.8,2.,4.8
1979-03-03 00:21:00.580 ,7,0,18.,4.8,0.,4.8,0.,4.8,0.,4.8
1979-03-03 00:21:05.380 ,7,0,11.,4.8,0.,4.8,0.,4.8,0.,4.8
1979-03-03 00:21:10.180 ,7,0,2.,4.8,0.,4.8,0.,4.8,0.,4.8
1979-03-03 00:21:14.980 ,7,0,0.,4.8,0.,4.8,0.,4.8,0.,4.8
1979-03-03 00:21:19.780 ,7,0,2.,4.8,0.,4.8,0.,4.8,0.,4.8
1979-03-03 00:21:24.580 ,7,0,2.,4.8,0.,4.8,0.,4.8,0.,4.8
1979-03-03 00:21:29.380 ,7,0,0.,4.8,0.,4.8,0.,4.8,0.,4.8
1979-03-03 00:21:34.180 ,7,0,0.,4.8,0.,4.8,0.,4.8,0.,4.8
1979-03-03 00:21:38.980 ,7,0,2.,4.8,0.,4.8,0.,4.8,0.,4.8
1979-03-03 00:21:43.780 ,7,0,2.,4.8,0.,4.8,0.,4.8,0.,4.8
1979-03-03 00:21:48.580 ,6,0,2.,4.8,0.,4.8,0.,4.8,0.,4.8
1979-03-03 00:21:53.380 ,6,0,1.,4.8,0.,4.8,0.,4.8,0.,4.8
1979-03-03 00:21:58.180 ,6,0,9.,4.8,0.,4.8,0.,4.8,1.,4.8
1979-03-03 00:22:02.980 ,6,0,9.,4.8,0.,4.8,0.,4.8,0.,4.8
1979-03-03 00:22:07.780 ,6,0,8.,4.8,0.,4.8,0.,4.8,2.,4.8
1979-03-03 00:22:12.580 ,5,0,5.,4.8,0.,4.8,0.,4.8,0.,4.8
1979-03-03 00:22:17.380 ,5,0,12.,4.8,0.,4.8,0.,4.8,0.,4.8
1979-03-03 00:22:22.180 ,5,0,15.,4.8,0.,4.8,0.,4.8,1.,4.8
1979-03-03 00:22:26.980 ,5,0,9.,4.8,0.,4.8,0.,4.8,0.,4.8
1979-03-03 00:22:31.780 ,5,0,16.,4.8,0.,4.8,0.,4.8,2.,4.8
1979-03-03 00:22:36.580 ,4,0,9.,4.8,0.,4.8,0.,4.8,0.,4.8
1979-03-03 00:22:41.380 ,4,0,14.,4.8,0.,4.8,0.,4.8,0.,4.8
1979-03-03 00:22:46.180 ,4,0,10.,4.8,0.,4.8,0.,4.8,0.,4.8
1979-03-03 00:22:50.980 ,4,0,15.,4.8,0.,4.8,0.,4.8,2.,4.8
1979-03-03 00:22:55.780 ,4,0,19.,4.8,0.,4.8,0.,4.8,1.,4.8
1979-03-03 00:23:00.580 ,3,0,10.,4.8,0.,4.8,0.,4.8,2.,4.8
1979-03-03 00:23:05.380 ,3,0,15.,4.8,0.,4.8,0.,4.8,2.,4.8
1979-03-03 00:23:10.180 ,3,0,9.,4.8,0.,4.8,0.,4.8,1.,4.8
1979-03-03 00:23:14.980 ,3,0,4.,4.8,0.,4.8,0.,4.8,0.,4.8
1979-03-03 00:23:19.780 ,3,0,8.,4.8,0.,4.8,0.,4.8,0.,4.8
1979-03-03 00:23:24.580 ,2,0,11.,4.8,0.,4.8,0.,4.8,0.,4.8
1979-03-03 00:23:29.380 ,2,0,3.,4.8,0.,4.8,0.,4.8,1.,4.8
1979-03-03 00:23:34.180 ,2,0,7.,4.8,0.,4.8,0.,4.8,0.,4.8
1979-03-03 00:23:38.980 ,2,0,4.,4.8,0.,4.8,0.,4.8,0.,4.8
1979-03-03 00:23:43.780 ,2,0,7.,4.8,0.,4.8,0.,4.8,0.,4.8
1979-03-03 00:23:48.580 ,1,0,2.,4.8,0.,4.8,0.,4.8,0.,4.8
1979-03-03 00:23:53.380 ,1,0,2.,4.8,0.,4.8,0.,4.8,0.,4.8
1979-03-03 00:23:58.180 ,1,0,3.,4.8,0.,4.8,0.,4.8,0.,4.8
1979-03-03 00:24:02.980 ,1,0,3.,4.8,0.,4.8,0.,4.8,0.,4.8
1979-03-03 00:24:07.780 ,1,0,1.,4.8,0.,4.8,0.,4.8,0.,4.8
1979-03-03 00:24:12.580 ,0,0,5.,4.8,0.,4.8,0.,4.8,0.,4.8
1979-03-03 00:24:17.380 ,0,0,4.,4.8,0.,4.8,0.,4.8,0.,4.8
1979-03-03 00:24:22.180 ,0,0,9.,4.8,0.,4.8,0.,4.8,1.,4.8
1979-03-03 00:24:26.980 ,0,0,7.,4.8,0.,4.8,0.,4.8,2.,4.8
1979-03-03 00:24:31.780 ,0,0,10.,4.8,0.,4.8,0.,4.8,3.,4.8
1979-03-03 00:24:36.580 ,0,0,12.,4.8,0.,4.8,0.,4.8,1.,4.8
1979-03-03 00:24:41.380 ,0,0,8.,4.8,0.,4.8,0.,4.8,0.,4.8
1979-03-03 00:24:46.180 ,0,0,15.,4.8,0.,4.8,0.,4.8,0.,4.8
1979-03-03 00:24:50.980 ,0,0,12.,4.8,0.,4.8,0.,4.8,0.,4.8
1979-03-03 00:24:55.780 ,0,0,7.,4.8,0.,4.8,0.,4.8,2.,4.8
1979-03-03 00:25:00.580 ,1,0,12.,4.8,0.,4.8,0.,4.8,0.,4.8
1979-03-03 00:25:05.380 ,1,0,10.,4.8,0.,4.8,0.,4.8,0.,4.8
1979-03-03 00:25:10.180 ,1,0,4.,4.8,0.,4.8,0.,4.8,0.,4.8
1979-03-03 00:25:14.980 ,1,0,5.,4.8,0.,4.8,0.,4.8,0.,4.8
1979-03-03 00:25:19.780 ,1,0,4.,4.8,0.,4.8,0.,4.8,0.,4.8
1979-03-03 00:25:24.580 ,0,0,5.,4.8,0.,4.8,0.,4.8,0.,4.8
1979-03-03 00:25:29.380 ,0,0,4.,4.8,0.,4.8,0.,4.8,0.,4.8
1979-03-03 00:25:34.180 ,0,0,5.,4.8,0.,4.8,0.,4.8,1.,4.8
1979-03-03 00:25:38.980 ,0,0,3.,4.8,0.,4.8,0.,4.8,0.,4.8
1979-03-03 00:25:43.780 ,0,0,3.,4.8,0.,4.8,0.,4.8,0.,4.8
1979-03-03 00:25:48.580 ,0,0,5.,4.8,0.,4.8,0.,4.8,0.,4.8
1979-03-03 00:25:53.380 ,0,0,6.,4.8,0.,4.8,0.,4.8,0.,4.8
1979-03-03 00:25:58.180 ,0,0,3.,4.8,0.,4.8,0.,4.8,0.,4.8
1979-03-03 00:26:02.980 ,0,0,11.,4.8,0.,4.8,0.,4.8,1.,4.8
1979-03-03 00:26:07.780 ,0,0,7.,4.8,0.,4.8,0.,4.8,1.,4.8
1979-03-03 00:26:12.580 ,4,0,4.,4.8,0.,4.8,0.,4.8,0.,4.8
1979-03-03 00:26:17.380 ,4,0,3.,4.8,0.,4.8,0.,4.8,1.,4.8
1979-03-03 00:26:22.180 ,4,0,18.,4.8,0.,4.8,0.,4.8,1.,4.8
1979-03-03 00:26:26.980 ,4,0,18.,4.8,0.,4.8,0.,4.8,3.,4.8
1979-03-03 00:26:31.780 ,4,0,17.,4.8,0.,4.8,0.,4.8,0.,4.8
1979-03-03 00:26:36.580 ,5,0,7.,4.8,0.,4.8,0.,4.8,2.,4.8
1979-03-03 00:26:41.380 ,5,0,11.,4.8,0.,4.8,0.,4.8,1.,4.8
1979-03-03 00:26:46.180 ,5,0,11.,4.8,0.,4.8,0.,4.8,0.,4.8
1979-03-03 00:26:50.980 ,5,0,12.,4.8,0.,4.8,0.,4.8,0.,4.8
1979-03-03 00:26:55.780 ,5,0,12.,4.8,0.,4.8,0.,4.8,2.,4.8
1979-03-03 00:27:00.580 ,6,0,11.,4.8,0.,4.8,0.,4.8,0.,4.8
1979-03-03 00:27:05.380 ,6,0,14.,4.8,0.,4.8,0.,4.8,0.,4.8
1979-03-03 00:27:10.180 ,6,0,14.,4.8,0.,4.8,0.,4.8,1.,4.8
1979-03-03 00:27:14.980 ,6,0,9.,4.8,0.,4.8,0.,4.8,0.,4.8
1979-03-03 00:27:19.780 ,6,0,10.,4.8,0.,4.8,0.,4.8,0.,4.8
1979-03-03 00:27:24.580 ,7,0,15.,4.8,0.,4.8,0.,4.8,2.,4.8
1979-03-03 00:27:29.380 ,7,0,11.,4.8,0.,4.8,0.,4.8,0.,4.8
1979-03-03 00:27:34.180 ,7,0,1.,4.8,0.,4.8,0.,4.8,0.,4.8
1979-03-03 00:27:38.980 ,7,0,1.,4.8,0.,4.8,0.,4.8,0.,4.8
1979-03-03 00:27:43.780 ,7,0,2.,4.8,0.,4.8,0.,4.8,0.,4.8
1979-03-03 00:27:48.580 ,7,0,2.,4.8,0.,4.8,0.,4.8,0.,4.8
1979-03-03 00:27:53.380 ,7,0,1.,4.8,0.,4.8,0.,4.8,0.,4.8
1979-03-03 00:27:58.180 ,7,0,1.,4.8,0.,4.8,0.,4.8,0.,4.8
1979-03-03 00:28:02.980 ,7,0,0.,4.8,0.,4.8,0.,4.8,0.,4.8
1979-03-03 00:28:07.780 ,7,0,1.,4.8,0.,4.8,0.,4.8,0.,4.8
1979-03-03 00:28:12.580 ,6,0,1.,4.8,0.,4.8,0.,4.8,0.,4.8
1979-03-03 00:28:17.380 ,6,0,2.,4.8,0.,4.8,0.,4.8,0.,4.8
1979-03-03 00:28:22.180 ,6,0,7.,4.8,0.,4.8,0.,4.8,0.,4.8
1979-03-03 00:28:26.980 ,6,0,11.,4.8,0.,4.8,0.,4.8,0.,4.8
1979-03-03 00:28:31.780 ,6,0,16.,4.8,0.,4.8,0.,4.8,0.,4.8
1979-03-03 00:28:36.580 ,5,0,9.,4.8,0.,4.8,0.,4.8,0.,4.8
1979-03-03 00:28:41.380 ,5,0,7.,4.8,0.,4.8,0.,4.8,0.,4.8
1979-03-03 00:28:46.180 ,5,0,11.,4.8,0.,4.8,0.,4.8,0.,4.8
1979-03-03 00:28:50.980 ,5,0,14.,4.8,0.,4.8,0.,4.8,1.,4.8
1979-03-03 00:28:55.780 ,5,0,12.,4.8,0.,4.8,0.,4.8,1.,4.8
1979-03-03 00:29:00.580 ,4,0,12.,4.8,0.,4.8,0.,4.8,0.,4.8
1979-03-03 00:29:05.380 ,4,0,13.,4.8,0.,4.8,0.,4.8,0.,4.8
1979-03-03 00:29:10.180 ,4,0,18.,4.8,0.,4.8,0.,4.8,2.,4.8
1979-03-03 00:29:14.980 ,4,0,13.,4.8,0.,4.8,0.,4.8,2.,4.8
1979-03-03 00:29:19.780 ,4,0,13.,4.8,0.,4.8,0.,4.8,2.,4.8
1979-03-03 00:29:24.580 ,3,0,13.,4.8,0.,4.8,0.,4.8,2.,4.8
1979-03-03 00:29:29.380 ,3,0,11.,4.8,0.,4.8,0.,4.8,0.,4.8
1979-03-03 00:29:34.180 ,3,0,13.,4.8,0.,4.8,0.,4.8,0.,4.8
1979-03-03 00:29:38.980 ,3,0,2.,4.8,0.,4.8,0.,4.8,1.,4.8
1979-03-03 00:29:43.780 ,3,0,6.,4.8,0.,4.8,0.,4.8,0.,4.8
1979-03-03 00:29:48.580 ,2,0,10.,4.8,0.,4.8,0.,4.8,0.,4.8
1979-03-03 00:29:53.380 ,2,0,5.,4.8,0.,4.8,0.,4.8,0.,4.8
1979-03-03 00:29:58.180 ,2,0,4.,4.8,0.,4.8,0.,4.8,0.,4.8
1979-03-03 00:30:02.980 ,2,0,4.,4.8,0.,4.8,0.,4.8,0.,4.8
1979-03-03 00:30:07.780 ,2,0,3.,4.8,0.,4.8,0.,4.8,0.,4.8
1979-03-03 00:30:12.580 ,1,0,4.,4.8,0.,4.8,0.,4.8,0.,4.8
1979-03-03 00:30:17.380 ,1,0,1.,4.8,0.,4.8,0.,4.8,0.,4.8
1979-03-03 00:30:22.180 ,1,0,4.,4.8,0.,4.8,0.,4.8,0.,4.8
1979-03-03 00:30:26.980 ,1,0,2.,4.8,0.,4.8,0.,4.8,0.,4.8
1979-03-03 00:30:31.780 ,1,0,7.,4.8,0.,4.8,0.,4.8,0.,4.8
1979-03-03 00:30:36.580 ,0,0,3.,4.8,0.,4.8,0.,4.8,0.,4.8
1979-03-03 00:30:41.380 ,0,0,4.,4.8,0.,4.8,0.,4.8,0.,4.8
1979-03-03 00:30:46.180 ,0,0,3.,4.8,0.,4.8,0.,4.8,1.,4.8
1979-03-03 00:30:50.980 ,0,0,7.,4.8,0.,4.8,0.,4.8,0.,4.8
1979-03-03 00:30:55.780 ,0,0,7.,4.8,0.,4.8,0.,4.8,0.,4.8
1979-03-03 00:31:00.580 ,0,0,3.,4.8,0.,4.8,0.,4.8,0.,4.8
1979-03-03 00:31:05.380 ,0,0,9.,4.8,0.,4.8,0.,4.8,0.,4.8
1979-03-03 00:31:10.180 ,0,0,8.,4.8,0.,4.8,0.,4.8,0.,4.8
1979-03-03 00:31:14.980 ,0,0,7.,4.8,0.,4.8,0.,4.8,0.,4.8
1979-03-03 00:31:19.780 ,0,0,4.,4.8,0.,4.8,0.,4.8,0.,4.8
1979-03-03 00:31:24.580 ,1,0,6.,4.8,0.,4.8,0.,4.8,0.,4.8
1979-03-03 00:31:29.380 ,1,0,6.,4.8,0.,4.8,0.,4.8,1.,4.8
1979-03-03 00:31:34.180 ,1,0,6.,4.8,0.,4.8,0.,4.8,0.,4.8
1979-03-03 00:31:38.980 ,1,0,7.,4.8,0.,4.8,0.,4.8,0.,4.8
1979-03-03 00:31:43.780 ,1,0,4.,4.8,0.,4.8,0.,4.8,0.,4.8
1979-03-03 00:31:48.580 ,2,0,8.,4.8,0.,4.8,0.,4.8,0.,4.8
1979-03-03 00:31:53.380 ,2,0,5.,4.8,0.,4.8,0.,4.8,0.,4.8
1979-03-03 00:31:58.180 ,2,0,6.,4.8,0.,4.8,0.,4.8,0.,4.8
1979-03-03 00:32:02.980 ,2,0,6.,4.8,0.,4.8,0.,4.8,0.,4.8
1979-03-03 00:32:07.780 ,2,0,7.,4.8,0.,4.8,0.,4.8,0.,4.8
1979-03-03 00:32:12.580 ,3,0,4.,4.8,0.,4.8,0.,4.8,0.,4.8
1979-03-03 00:32:17.380 ,3,0,1.,4.8,0.,4.8,0.,4.8,0.,4.8
1979-03-03 00:32:22.180 ,3,0,3.,4.8,0.,4.8,0.,4.8,0.,4.8
1979-03-03 00:32:26.980 ,3,0,6.,4.8,0.,4.8,0.,4.8,0.,4.8
1979-03-03 00:32:31.780 ,3,0,7.,4.8,0.,4.8,0.,4.8,0.,4.8
1979-03-03 00:32:36.580 ,4,0,7.,4.8,0.,4.8,0.,4.8,0.,4.8
1979-03-03 00:32:41.380 ,4,0,6.,4.8,0.,4.8,0.,4.8,1.,4.8
1979-03-03 00:32:46.180 ,4,0,8.,4.8,0.,4.8,0.,4.8,1.,4.8
1979-03-03 00:32:50.980 ,4,0,18.,4.8,0.,4.8,0.,4.8,0.,4.8